{"data":{"norad_id":65435,"epoch":"2026-09-20T14:02:26.738880Z","epoch_age_seconds":107544,"freshness":"FRESH","line1":"1 65435U 25194B   26263.58503170  .00006031  00000+0  18897-3 0  9997","line2":"2 65435  97.2842 113.2706 0001878  87.4807 272.6651 15.33445009 59080","mean_motion":15.33445009,"eccentricity":0.0001878,"inclination_deg":97.2842,"raan_deg":113.2706,"arg_perigee_deg":87.4807,"mean_anomaly_deg":272.6651,"bstar":0.00018897,"rev_number":5908,"period_min":93.906204105686,"perigee_km":464.25790456872,"apogee_km":466.8283908322,"semimajor_km":6843.6801477005,"source":"CELESTRAK","updated_at":"2026-09-21T09:00:35.608526Z"}}